Location: Unspecified
(0.0000°N, 0.0000°E)
Time: 18:51:26
(UTC+00:00)

Transit 2A Rocket - Pass Details

Date: 25 November 2019
Orbit: 594 x 909 km, 66.7° (Epoch: 05 December)

Event Time Altitude Azimuth Distance (km) Brightness Sun altitude
Rises 05:35:42 0° 9° (N) 2,994 8.0 -2.6°
Reaches altitude 10° 05:38:34 10° 28° (NNE) 2,141 7.4 -1.9°
Maximum altitude 05:41:55 18° 72° (ENE) 1,711 7.7 -1.2°
Drops below altitude 10° 05:45:27 10° 115° (ESE) 2,290 9.8 -0.3°
Sets 05:48:38 0° 133° (SE) 3,286 9.8 0.4°
